map of HBA home
HBA - Airport
Location
City:  Hobart, Tasmania, Australia
ICAO:YMHB
IATA:HBA

Details
Type:Airport (Aerodrome, Airfield)
Use:Public/Civil, International (customs port of entry)
Latitude:4250'10"S (-42.836110)
Longitude:14730'37"E (147.510278)
Datum:WGS 1984
Elevation:13 ft (4 m)
Variation:15.13E (WMM2015 magnetic declination)
0.04 annual change
Runways:1
Longest:7385 × 148 ft (2251 × 45 m), paved

Time
Time Zone:UTC+10 (DST+11)
Local Time:

Weather
METAR:YMHB 192100Z 01012KT 9999 FEW030 SCT180 BKN235 17/08 Q1010 RF00.0/000.0
TAF:YMHB 191107Z 1912/2012 03014KT 9999 FEW020
FM192200 02015G25KT 9999
FM200400 03014KT 9999 -SHRA BKN100
FM200800 03012KT 9999 -RA SCT015 BKN090 INTER 2006/2012 6000 RA SCT015 SCT025

Related Locations
Nearby:
Farthest:CVU: 12201 mi / 19636 km
Corvo Island, 20, PT

Find:

   beyond  
but within

Other Information
Maps:
NOTAMs:
Links:
Sources:

  
  • flag of Australia
  • flag of Tasmania
  

Sectional Chart

Flight Planning
at skyvector.com

Satellite Image

Google Maps Satellite view

 

Copyright © 2004-2018 Karl L. Swartz. All rights reserved.
The Great Circle Mapper name and logo are trademarks of the Great Circle Mapper.
All other trademarks mentioned herein belong to their respective owners.
Please see credits for attibutions and further copyright information.

  Follow gcmap on Facebook Follow gcmap on Twitter Follow gcmap on Google+ GCmap on LinkedIn

hCard Microformat

Geo Microformat